Location: Ehingen
(48.2869°N, 9.7112°E)
Time: 19:52:38
(UTC+02:00)

ISS - Pass Details

Date: 30 March 2017
Orbit: 399 x 409 km, 51.6° (Epoch: 29 March)

Event Time Altitude Azimuth Distance (km) Brightness Sun altitude
Rises 22:24:03 0° 266° (W) 2,314 0.7 -24.4°
Reaches altitude 10° 22:26:10 10° 271° (W) 1,457 -0.4 -24.7°
Enters shadow 22:28:00 29° 287° (WNW) 776 -1.9 -24.9°
